Time,TemperatureF,DewpointF,PressureIn,WindDirection,WindDirectionDegrees,WindSpeedMPH,WindSpeedGustMPH,Humidity,HourlyPrecipIn,Conditions,Clouds,dailyrainin,SoftwareType,DateUTC
2013-11-03 00:04:00,43.0,38.2,30.08,West,270,1.1,-999.0,83,-99.99,,,0.00,Acu-Link.com,2013-11-03 04:04:00,
2013-11-03 00:19:00,42.8,38.0,30.08,SW,225,1.7,-999.0,83,-99.99,,,0.00,Acu-Link.com,2013-11-03 04:19:00,
2013-11-03 00:34:00,42.6,38.1,30.08,SSW,202,1.7,-999.0,84,-99.99,,,0.00,Acu-Link.com,2013-11-03 04:34:00,
2013-11-03 00:49:00,42.3,37.8,30.09,South,180,2.7,-999.0,84,-99.99,,,0.00,Acu-Link.com,2013-11-03 04:49:00,
2013-11-03 01:05:00,41.9,37.7,30.09,West,270,0.0,-999.0,85,-99.99,,,0.00,Acu-Link.com,2013-11-03 05:05:00,
2013-11-03 01:20:00,41.2,37.3,30.09,East,90,0.0,-999.0,86,-99.99,,,0.00,Acu-Link.com,2013-11-03 05:20:00,
2013-11-03 01:35:00,40.5,36.9,30.08,WSW,247,0.0,-999.0,87,-99.99,,,0.00,Acu-Link.com,2013-11-03 05:35:00,
2013-11-03 01:50:00,39.4,36.1,30.08,SW,225,1.1,-999.0,88,-99.99,,,0.00,Acu-Link.com,2013-11-03 05:50:00,
2013-11-03 01:05:00,38.8,36.1,30.09,SW,225,0.0,-999.0,90,-99.99,,,0.00,Acu-Link.com,2013-11-03 06:05:00,
2013-11-03 01:20:00,38.1,35.4,30.09,West,270,0.0,-999.0,90,-99.99,,,0.00,Acu-Link.com,2013-11-03 06:20:00,
2013-11-03 01:35:00,37.4,34.7,30.09,West,270,0.0,-999.0,90,-99.99,,,0.00,Acu-Link.com,2013-11-03 06:35:00,
2013-11-03 01:50:00,36.9,34.5,30.10,NW,315,0.0,-999.0,91,-99.99,,,0.00,Acu-Link.com,2013-11-03 06:50:00,
2013-11-03 02:05:00,36.3,33.7,30.10,NE,45,0.0,-999.0,90,-99.99,,,0.00,Acu-Link.com,2013-11-03 07:05:00,
2013-11-03 02:21:00,36.0,33.9,30.10,WNW,292,0.0,-999.0,92,-99.99,,,0.00,Acu-Link.com,2013-11-03 07:21:00,
2013-11-03 02:36:00,35.1,33.0,30.11,West,270,0.0,-999.0,92,-99.99,,,0.00,Acu-Link.com,2013-11-03 07:36:00,
2013-11-03 02:51:00,34.7,32.3,30.11,West,270,0.0,-999.0,91,-99.99,,,0.00,Acu-Link.com,2013-11-03 07:51:00,
2013-11-03 03:06:00,34.9,33.1,30.12,WSW,247,0.0,-999.0,93,-99.99,,,0.00,Acu-Link.com,2013-11-03 08:06:00,
2013-11-03 03:21:00,35.1,33.3,30.13,WNW,292,0.0,-999.0,93,-99.99,,,0.00,Acu-Link.com,2013-11-03 08:21:00,
2013-11-03 03:36:00,34.9,33.1,30.13,WNW,292,0.0,-999.0,93,-99.99,,,0.00,Acu-Link.com,2013-11-03 08:36:00,
2013-11-03 03:51:00,34.5,32.7,30.13,WSW,247,0.0,-999.0,93,-99.99,,,0.00,Acu-Link.com,2013-11-03 08:51:00,
2013-11-03 04:07:00,34.2,32.4,30.14,SSW,202,0.0,-999.0,93,-99.99,,,0.00,Acu-Link.com,2013-11-03 09:07:00,
2013-11-03 04:22:00,33.4,31.6,30.15,WSW,247,0.0,-999.0,93,-99.99,,,0.00,Acu-Link.com,2013-11-03 09:22:00,
2013-11-03 04:37:00,33.3,31.8,30.16,South,180,0.0,-999.0,94,-99.99,,,0.00,Acu-Link.com,2013-11-03 09:37:00,
2013-11-03 04:52:00,32.4,30.6,30.16,ESE,112,0.0,-999.0,93,-99.99,,,0.00,Acu-Link.com,2013-11-03 09:52:00,
2013-11-03 05:07:00,31.8,30.0,30.17,SSW,202,0.0,-999.0,93,-99.99,,,0.00,Acu-Link.com,2013-11-03 10:07:00,
2013-11-03 05:22:00,31.3,29.3,30.17,SSE,157,0.0,-999.0,92,-99.99,,,0.00,Acu-Link.com,2013-11-03 10:22:00,
2013-11-03 05:37:00,30.7,28.7,30.18,SE,135,0.0,-999.0,92,-99.99,,,0.00,Acu-Link.com,2013-11-03 10:37:00,
2013-11-03 05:53:00,31.6,30.1,30.19,WNW,292,0.0,-999.0,94,-99.99,,,0.00,Acu-Link.com,2013-11-03 10:53:00,
2013-11-03 06:08:00,30.7,29.2,30.19,West,270,0.0,-999.0,94,-99.99,,,0.00,Acu-Link.com,2013-11-03 11:08:00,
2013-11-03 06:23:00,30.9,29.1,30.19,NW,315,0.0,-999.0,93,-99.99,,,0.00,Acu-Link.com,2013-11-03 11:23:00,
2013-11-03 06:38:00,30.6,28.8,30.20,West,270,0.0,-999.0,93,-99.99,,,0.00,Acu-Link.com,2013-11-03 11:38:00,
2013-11-03 06:53:00,30.4,28.6,30.20,West,270,0.0,-999.0,93,-99.99,,,0.00,Acu-Link.com,2013-11-03 11:53:00,
2013-11-03 07:09:00,30.2,28.4,30.20,West,270,0.0,-999.0,93,-99.99,,,0.00,Acu-Link.com,2013-11-03 12:09:00,
2013-11-03 07:24:00,29.7,27.9,30.21,West,270,0.0,-999.0,93,-99.99,,,0.00,Acu-Link.com,2013-11-03 12:24:00,
2013-11-03 07:39:00,30.0,28.2,30.22,West,270,0.0,-999.0,93,-99.99,,,0.00,Acu-Link.com,2013-11-03 12:39:00,
2013-11-03 07:54:00,30.7,29.2,30.23,West,270,0.0,-999.0,94,-99.99,,,0.00,Acu-Link.com,2013-11-03 12:54:00,
2013-11-03 08:09:00,31.5,30.0,30.24,West,270,0.0,-999.0,94,-99.99,,,0.00,Acu-Link.com,2013-11-03 13:09:00,
2013-11-03 08:24:00,32.5,31.0,30.24,WNW,292,0.0,-999.0,94,-99.99,,,0.00,Acu-Link.com,2013-11-03 13:24:00,
2013-11-03 08:39:00,33.6,32.1,30.24,North,0,0.0,-999.0,94,-99.99,,,0.00,Acu-Link.com,2013-11-03 13:39:00,
2013-11-03 08:54:00,35.6,34.3,30.25,North,0,1.1,-999.0,95,-99.99,,,0.00,Acu-Link.com,2013-11-03 13:54:00,
2013-11-03 09:09:00,38.8,37.5,30.25,East,90,0.0,-999.0,95,-99.99,,,0.00,Acu-Link.com,2013-11-03 14:09:00,
2013-11-03 09:25:00,39.9,38.6,30.24,East,90,2.2,-999.0,95,-99.99,,,0.00,Acu-Link.com,2013-11-03 14:25:00,
2013-11-03 09:40:00,42.8,40.1,30.24,West,270,0.0,-999.0,90,-99.99,,,0.00,Acu-Link.com,2013-11-03 14:40:00,
2013-11-03 09:55:00,46.2,41.0,30.24,NW,315,2.2,-999.0,82,-99.99,,,0.00,Acu-Link.com,2013-11-03 14:55:00,
2013-11-03 10:10:00,49.1,42.2,30.25,East,90,1.7,-999.0,77,-99.99,,,0.00,Acu-Link.com,2013-11-03 15:10:00,
2013-11-03 10:25:00,52.2,41.2,30.25,SW,225,1.1,-999.0,66,-99.99,,,0.00,Acu-Link.com,2013-11-03 15:25:00,
2013-11-03 10:40:00,54.0,41.3,30.26,ENE,67,2.2,-999.0,62,-99.99,,,0.00,Acu-Link.com,2013-11-03 15:40:00,
2013-11-03 10:55:00,54.3,39.8,30.26,SW,225,2.2,-999.0,58,-99.99,,,0.00,Acu-Link.com,2013-11-03 15:55:00,
2013-11-03 11:10:00,54.1,41.0,30.25,NNE,22,1.7,-999.0,61,-99.99,,,0.00,Acu-Link.com,2013-11-03 16:10:00,
2013-11-03 11:25:00,52.9,41.5,30.25,ESE,112,1.7,-999.0,65,-99.99,,,0.00,Acu-Link.com,2013-11-03 16:25:00,
2013-11-03 11:40:00,53.2,40.9,30.25,WSW,247,3.2,-999.0,63,-99.99,,,0.00,Acu-Link.com,2013-11-03 16:40:00,
2013-11-03 11:56:00,53.2,40.1,30.24,SW,225,3.7,-999.0,61,-99.99,,,0.00,Acu-Link.com,2013-11-03 16:56:00,
2013-11-03 12:11:00,56.3,41.3,30.24,SE,135,3.2,-999.0,57,-99.99,,,0.00,Acu-Link.com,2013-11-03 17:11:00,
2013-11-03 12:26:00,55.0,41.4,30.24,SE,135,0.0,-999.0,60,-99.99,,,0.00,Acu-Link.com,2013-11-03 17:26:00,
2013-11-03 12:41:00,53.4,40.3,30.23,ENE,67,2.7,-999.0,61,-99.99,,,0.00,Acu-Link.com,2013-11-03 17:41:00,
2013-11-03 12:56:00,52.9,39.0,30.22,NE,45,2.2,-999.0,59,-99.99,,,0.00,Acu-Link.com,2013-11-03 17:56:00,
2013-11-03 13:11:00,54.7,40.2,30.21,ESE,112,2.7,-999.0,58,-99.99,,,0.00,Acu-Link.com,2013-11-03 18:11:00,
2013-11-03 13:26:00,55.8,40.3,30.21,South,180,3.7,-999.0,56,-99.99,,,0.00,Acu-Link.com,2013-11-03 18:26:00,
2013-11-03 13:41:00,56.7,38.8,30.21,SW,225,4.2,-999.0,51,-99.99,,,0.00,Acu-Link.com,2013-11-03 18:41:00,
2013-11-03 13:56:00,55.6,38.3,30.21,ESE,112,3.7,-999.0,52,-99.99,,,0.00,Acu-Link.com,2013-11-03 18:56:00,
2013-11-03 14:12:00,55.2,37.4,30.21,South,180,5.8,-999.0,51,-99.99,,,0.00,Acu-Link.com,2013-11-03 19:12:00,
2013-11-03 14:27:00,56.8,39.4,30.22,SSE,157,1.7,-999.0,52,-99.99,,,0.00,Acu-Link.com,2013-11-03 19:27:00,
2013-11-03 14:42:00,55.0,37.7,30.22,ESE,112,1.7,-999.0,52,-99.99,,,0.00,Acu-Link.com,2013-11-03 19:42:00,
2013-11-03 14:57:00,56.7,38.8,30.23,SW,225,2.7,-999.0,51,-99.99,,,0.00,Acu-Link.com,2013-11-03 19:57:00,
2013-11-03 15:12:00,55.0,37.7,30.22,ESE,112,2.7,-999.0,52,-99.99,,,0.00,Acu-Link.com,2013-11-03 20:12:00,
2013-11-03 15:27:00,55.4,37.6,30.22,ESE,112,1.7,-999.0,51,-99.99,,,0.00,Acu-Link.com,2013-11-03 20:27:00,
2013-11-03 15:43:00,56.1,37.7,30.23,SSE,157,2.2,-999.0,50,-99.99,,,0.00,Acu-Link.com,2013-11-03 20:43:00,
2013-11-03 15:58:00,55.0,36.7,30.23,SSE,157,2.7,-999.0,50,-99.99,,,0.00,Acu-Link.com,2013-11-03 20:58:00,
2013-11-03 16:13:00,54.1,37.4,30.22,SSE,157,2.7,-999.0,53,-99.99,,,0.00,Acu-Link.com,2013-11-03 21:13:00,
2013-11-03 16:28:00,54.1,36.9,30.22,ENE,67,2.7,-999.0,52,-99.99,,,0.00,Acu-Link.com,2013-11-03 21:28:00,
2013-11-03 16:43:00,52.9,36.2,30.22,SSE,157,2.7,-999.0,53,-99.99,,,0.00,Acu-Link.com,2013-11-03 21:43:00,
2013-11-03 16:58:00,53.2,37.0,30.21,SE,135,0.0,-999.0,54,-99.99,,,0.00,Acu-Link.com,2013-11-03 21:58:00,
2013-11-03 17:13:00,52.2,36.5,30.19,East,90,0.0,-999.0,55,-99.99,,,0.00,Acu-Link.com,2013-11-03 22:13:00,
2013-11-03 17:28:00,50.9,35.8,30.20,ENE,67,0.0,-999.0,56,-99.99,,,0.00,Acu-Link.com,2013-11-03 22:28:00,
2013-11-03 17:44:00,48.2,35.8,30.20,East,90,0.0,-999.0,62,-99.99,,,0.00,Acu-Link.com,2013-11-03 22:44:00,
2013-11-03 17:59:00,46.2,35.5,30.20,East,90,0.0,-999.0,66,-99.99,,,0.00,Acu-Link.com,2013-11-03 22:59:00,
2013-11-03 18:14:00,45.3,35.4,30.20,ENE,67,1.1,-999.0,68,-99.99,,,0.00,Acu-Link.com,2013-11-03 23:14:00,
2013-11-03 18:29:00,44.6,35.1,30.21,East,90,1.1,-999.0,69,-99.99,,,0.00,Acu-Link.com,2013-11-03 23:29:00,
2013-11-03 18:44:00,43.7,34.6,30.22,East,90,0.0,-999.0,70,-99.99,,,0.00,Acu-Link.com,2013-11-03 23:44:00,
2013-11-03 18:59:00,43.0,34.3,30.22,NE,45,0.0,-999.0,71,-99.99,,,0.00,Acu-Link.com,2013-11-03 23:59:00,
2013-11-03 19:14:00,42.1,34.1,30.23,NE,45,0.0,-999.0,73,-99.99,,,0.00,Acu-Link.com,2013-11-04 00:14:00,
2013-11-03 19:29:00,41.9,34.6,30.23,East,90,1.7,-999.0,75,-99.99,,,0.00,Acu-Link.com,2013-11-04 00:29:00,
2013-11-03 19:44:00,41.7,34.4,30.23,ENE,67,0.0,-999.0,75,-99.99,,,0.00,Acu-Link.com,2013-11-04 00:44:00,
2013-11-03 20:00:00,41.5,34.2,30.23,ENE,67,0.0,-999.0,75,-99.99,,,0.00,Acu-Link.com,2013-11-04 01:00:00,
2013-11-03 20:15:00,41.5,34.2,30.23,ESE,112,1.1,-999.0,75,-99.99,,,0.00,Acu-Link.com,2013-11-04 01:15:00,
2013-11-03 20:30:00,41.4,34.4,30.23,South,180,0.0,-999.0,76,-99.99,,,0.00,Acu-Link.com,2013-11-04 01:30:00,
2013-11-03 20:45:00,41.0,34.4,30.24,ESE,112,0.0,-999.0,77,-99.99,,,0.00,Acu-Link.com,2013-11-04 01:45:00,
2013-11-03 21:00:00,40.6,34.0,30.25,ESE,112,0.0,-999.0,77,-99.99,,,0.00,Acu-Link.com,2013-11-04 02:00:00,
2013-11-03 21:15:00,40.5,34.2,30.25,ESE,112,0.0,-999.0,78,-99.99,,,0.00,Acu-Link.com,2013-11-04 02:15:00,
2013-11-03 21:30:00,40.5,34.5,30.25,ESE,112,1.1,-999.0,79,-99.99,,,0.00,Acu-Link.com,2013-11-04 02:30:00,
2013-11-03 21:45:00,41.2,35.2,30.24,SE,135,1.7,-999.0,79,-99.99,,,0.00,Acu-Link.com,2013-11-04 02:45:00,
2013-11-03 22:01:00,41.9,35.6,30.25,SSE,157,2.2,-999.0,78,-99.99,,,0.00,Acu-Link.com,2013-11-04 03:01:00,
2013-11-03 22:16:00,42.4,35.7,30.26,South,180,1.1,-999.0,77,-99.99,,,0.00,Acu-Link.com,2013-11-04 03:16:00,
2013-11-03 22:31:00,42.4,36.0,30.26,ENE,67,1.1,-999.0,78,-99.99,,,0.00,Acu-Link.com,2013-11-04 03:31:00,
2013-11-03 22:46:00,42.1,35.7,30.26,ESE,112,0.0,-999.0,78,-99.99,,,0.00,Acu-Link.com,2013-11-04 03:46:00,
2013-11-03 23:01:00,41.2,35.5,30.26,SSE,157,0.0,-999.0,80,-99.99,,,0.00,Acu-Link.com,2013-11-04 04:01:00,
2013-11-03 23:16:00,40.5,35.1,30.27,East,90,0.0,-999.0,81,-99.99,,,0.00,Acu-Link.com,2013-11-04 04:16:00,
2013-11-03 23:31:00,40.5,35.4,30.26,ESE,112,1.1,-999.0,82,-99.99,,,0.00,Acu-Link.com,2013-11-04 04:31:00,
2013-11-03 23:46:00,40.5,35.1,30.26,SE,135,0.0,-999.0,81,-99.99,,,0.00,Acu-Link.com,2013-11-04 04:46:00,